DateTimeUTC,F1_A11,F1_S11,BsB_S11,BsG_S11,BsR_S11,BbsB_S11,BbsG_S11,BbsR_S11,BaB_A11,BaG_A11,BaR_A11,Tu_S11,T_S11,Uu_S11,U_S11,P_S11,T1_A11
2021-05-31T07:00:00Z,00000200,21000000,,,,,,,0000.04,0000.04,0000.01,16.9,24.1,01.2,00.8,0657.7,31.0
2021-05-31T07:01:00Z,00000200,21000000,,,,,,,0000.00,-000.04,0000.33,16.9,24.1,01.2,00.8,0657.7,31.0
2021-05-31T07:02:00Z,00000200,21000000,,,,,,,0000.02,0000.02,-000.18,16.9,24.1,01.2,00.8,0657.7,31.0
2021-05-31T07:03:00Z,00000200,61000000,,,,,,,0000.42,0000.21,0000.38,16.9,24.1,01.2,00.8,0657.7,31.0
2021-05-31T07:04:00Z,00000200,41000000,-000.19,0000.35,0000.29,-000.41,0000.04,-000.08,0000.01,0000.56,-000.20,17.0,23.9,01.4,00.9,0658.5,31.0
2021-05-31T07:05:00Z,00000200,01000000,0000.60,0000.38,0000.27,-000.12,0000.01,0000.38,0000.32,-000.09,0000.22,17.1,23.9,01.4,01.0,0658.6,31.0
2021-05-31T07:06:00Z,00000200,01000000,0001.45,0000.36,0000.25,0000.17,0000.04,-000.18,0000.02,0000.17,0000.03,17.2,23.9,01.4,00.9,0658.6,31.0
2021-05-31T07:07:00Z,00000200,01000000,0001.21,0000.66,0000.22,-000.13,-000.21,-000.02,-000.07,-000.21,0000.24,17.2,23.9,01.5,01.0,0658.5,31.0
2021-05-31T07:08:00Z,00000200,01000000,0000.87,0000.51,0000.10,0000.13,-000.08,-000.08,0000.46,0000.90,0000.50,17.2,23.9,01.5,01.0,0658.5,31.0
2021-05-31T07:09:00Z,00000200,01000000,0001.48,0000.44,0000.45,-000.06,0000.29,0000.21,0000.28,-000.21,-000.16,17.2,23.9,01.6,01.1,0658.5,31.0
2021-05-31T07:10:00Z,00000200,01000000,0001.02,0000.49,0000.10,-000.42,0000.16,0000.00,0000.33,0000.47,0000.53,17.2,23.8,01.7,01.2,0658.5,31.0
2021-05-31T07:11:00Z,00000200,01000000,0000.41,0000.28,0000.36,0000.47,0000.35,-000.01,0000.32,0000.16,-000.16,17.2,23.8,01.9,01.2,0658.5,31.0
2021-05-31T07:12:00Z,00000200,00000000,0000.65,0000.40,0000.24,-000.18,0000.05,-000.13,0000.40,0000.21,0000.13,17.2,23.8,02.0,01.3,0658.5,31.0
2021-05-31T07:13:00Z,00000200,00000000,0000.61,0000.21,0000.39,-000.73,-000.02,-000.18,0000.37,0000.16,0000.09,17.2,23.8,02.1,01.4,0658.5,31.0
2021-05-31T07:14:00Z,00000200,00000000,0001.00,0000.55,0000.29,0000.02,-000.01,-000.08,0000.05,0000.57,0000.54,17.2,23.8,02.3,01.5,0658.5,31.0
2021-05-31T07:15:00Z,00000200,00000000,0000.69,0000.57,0000.08,-000.04,0000.25,0000.01,0000.52,0000.42,0000.47,17.2,23.8,02.4,01.6,0658.5,31.0
2021-05-31T07:16:00Z,00000200,00000000,0001.32,0000.39,0000.54,0000.34,0000.04,0000.09,0000.37,0000.42,0000.28,17.2,23.8,02.6,01.7,0658.5,30.9
2021-05-31T07:17:00Z,00000200,00000000,0001.03,0000.47,0000.31,0000.22,0000.22,0000.11,0000.32,0000.41,-000.16,17.2,23.8,02.7,01.8,0658.5,30.9
2021-05-31T07:18:00Z,00000200,00000000,0000.79,0000.64,0000.25,-000.61,0000.18,0000.29,0000.01,0000.02,0000.34,17.2,23.8,02.8,01.8,0658.6,30.9
2021-05-31T07:19:00Z,00000200,00000000,0000.22,0000.55,0000.34,0000.15,-000.07,-000.11,0000.27,0000.36,0000.18,17.2,23.8,02.9,01.9,0658.5,30.9
2021-05-31T07:20:00Z,00000200,00000000,0001.48,0000.59,0000.39,0000.02,0000.23,-000.05,0000.11,-000.03,-000.05,17.2,23.8,02.9,01.9,0658.5,30.9
2021-05-31T07:21:00Z,00000200,00000000,0000.27,0000.31,0000.36,0000.04,-000.05,0000.32,0000.42,0000.22,0000.25,17.2,23.8,03.0,02.0,0658.5,31.0
2021-05-31T07:22:00Z,00000200,00000000,0000.70,0000.53,0000.32,-000.20,-000.04,0000.14,0000.24,0000.04,0000.05,17.2,23.8,02.9,02.0,0658.5,30.9
2021-05-31T07:23:00Z,00000200,00000000,0000.92,0000.48,0000.40,0000.02,0000.01,0000.07,-000.20,-000.14,0000.37,17.2,23.8,03.0,02.0,0658.5,30.9
2021-05-31T07:24:00Z,00000200,00000000,0000.99,0000.57,0000.21,-000.36,-000.02,-000.04,0000.28,0000.54,-000.10,17.2,23.8,03.0,02.0,0658.5,30.9
2021-05-31T07:25:00Z,00000200,00000000,0000.83,0000.40,0000.18,0000.12,0000.14,-000.03,-000.07,-000.23,-000.19,17.2,23.7,02.9,02.0,0658.5,30.9
2021-05-31T07:26:00Z,00000200,00000000,0001.19,0000.45,0000.27,-000.33,-000.10,-000.05,0000.14,0000.23,0000.40,17.2,23.7,03.0,02.0,0658.5,30.9
2021-05-31T07:27:00Z,00000200,00000000,0000.49,0000.51,0000.24,-000.08,-000.04,-000.01,-000.18,-000.49,-000.41,17.1,23.8,02.9,02.0,0658.5,31.0
2021-05-31T07:28:00Z,00000200,00000000,0000.23,0000.66,0000.02,-000.63,0000.09,0000.22,0000.18,0000.31,0000.17,17.1,23.7,02.9,02.0,0658.5,31.0
2021-05-31T07:29:00Z,00000200,00000000,0000.92,0000.64,0000.45,-000.19,-000.08,0000.14,0000.03,-000.52,-000.09,17.1,23.7,02.9,01.9,0658.5,30.9
2021-05-31T07:30:00Z,00000200,00000000,0001.20,0000.54,0000.40,-000.33,0000.12,0000.18,-000.19,0000.23,-000.17,17.1,23.7,02.8,01.9,0658.5,30.9
2021-05-31T07:31:00Z,00000200,00000000,0001.18,0000.46,0000.65,0000.01,0000.26,0000.50,0000.65,0001.14,0000.76,17.1,23.7,02.9,02.0,0658.5,31.0
2021-05-31T07:32:00Z,00000200,00000000,0000.96,0000.46,0000.37,-000.03,-000.03,0000.32,0000.00,-000.41,0000.08,17.1,23.7,03.1,02.1,0658.5,31.0
2021-05-31T07:33:00Z,00000200,00000000,0000.23,0000.37,0000.29,0000.21,0000.06,-000.05,0000.23,0000.09,-000.20,17.1,23.7,03.2,02.1,0658.5,31.0
2021-05-31T07:34:00Z,00000200,00000000,0000.77,0000.75,0000.34,-000.29,0000.24,-000.01,0000.60,0000.77,0000.43,17.1,23.7,03.0,02.0,0658.5,30.9
2021-05-31T07:35:00Z,00000200,00000000,0000.79,0000.56,0000.22,-000.12,0000.18,0000.03,-000.17,-000.07,0000.24,17.2,23.7,03.3,02.2,0658.5,31.0
2021-05-31T07:36:00Z,00000200,00000000,0000.49,0000.34,0000.29,-000.09,0000.05,-000.26,0000.19,-000.10,0000.15,17.3,23.8,03.2,02.1,0658.5,30.9
2021-05-31T07:37:00Z,00000200,00000000,0000.96,0000.37,0000.24,-000.50,0000.21,0000.20,-000.21,0000.26,-000.41,17.3,23.8,03.1,02.1,0658.5,30.9
2021-05-31T07:38:00Z,00000200,00000000,0000.49,0000.75,0000.36,-000.29,0000.01,0000.31,0000.08,-000.11,0000.30,17.3,23.8,03.0,02.0,0658.5,31.0
2021-05-31T07:39:00Z,00000200,00000000,0001.27,0000.52,0000.24,-000.01,0000.08,0000.05,0000.22,0000.32,-000.08,17.3,23.8,03.0,02.0,0658.5,31.0
2021-05-31T07:40:00Z,00000200,00000000,0000.71,0000.74,0000.14,-000.00,-000.06,-000.15,-000.20,-000.32,0000.02,17.3,23.8,03.0,02.0,0658.5,31.0
2021-05-31T07:41:00Z,00000200,00000000,0000.45,0000.66,0000.26,0000.19,0000.04,-000.22,0000.34,0000.26,0000.09,17.3,23.8,03.0,02.0,0658.5,31.0
2021-05-31T07:42:00Z,00000200,00000000,0000.58,0000.77,0000.19,0000.50,0000.13,0000.06,-000.03,0000.15,-000.00,17.3,23.8,02.9,01.9,0658.6,31.0
2021-05-31T07:43:00Z,00000200,00000000,0001.28,0000.44,0000.38,0000.14,0000.24,0000.07,0000.23,-000.23,0000.13,17.3,23.8,02.8,01.9,0658.5,31.0
2021-05-31T07:44:00Z,00000200,00000000,0000.38,0000.46,0000.02,-000.08,-000.14,0000.05,-000.33,0000.11,-000.03,17.3,23.8,02.8,01.9,0658.6,31.0
2021-05-31T07:45:00Z,00000200,00000000,0001.20,0000.93,0000.27,0000.19,-000.04,0000.10,-000.04,-000.28,0000.05,17.3,23.8,02.9,02.0,0658.6,31.0
2021-05-31T07:46:00Z,00000200,00000000,0000.47,0000.44,0000.28,0000.19,0000.11,-000.02,-000.10,0000.42,-000.05,17.3,23.8,02.9,01.9,0658.6,31.0
2021-05-31T07:47:00Z,00000200,00000000,0000.73,0000.71,0000.18,0000.06,0000.41,-000.05,0000.37,-000.02,0000.09,17.3,23.8,02.8,01.9,0658.6,31.0
2021-05-31T07:48:00Z,00000200,00000000,0001.10,0000.61,0000.37,-000.48,0000.02,-000.21,0000.47,0000.25,0000.38,17.3,23.8,02.9,02.0,0658.6,31.0
2021-05-31T07:49:00Z,00000200,00000000,0000.14,0000.72,0000.30,-000.30,0000.15,-000.10,-000.18,0000.09,-000.32,17.3,23.8,02.8,01.9,0658.6,31.0
2021-05-31T07:50:00Z,00000200,00000000,0000.83,0000.56,0000.37,-000.07,0000.19,0000.01,0000.20,0000.09,0000.32,17.3,23.8,03.0,02.0,0658.6,31.0
2021-05-31T07:51:00Z,00000200,00000000,0000.65,0000.53,0000.13,0000.38,0000.29,-000.09,0000.48,0000.33,0000.35,17.3,23.8,03.1,02.1,0658.6,31.0
2021-05-31T07:52:00Z,00000200,00000000,0000.78,0000.42,0000.24,0000.27,0000.31,0000.01,-000.23,-000.33,-000.27,17.3,23.8,03.1,02.1,0658.6,31.0
2021-05-31T07:53:00Z,00000200,00000000,0000.80,0000.56,0000.36,0000.42,0000.47,-000.01,-000.11,-000.00,0000.08,17.3,23.8,03.0,02.0,0658.6,31.0
2021-05-31T07:54:00Z,00000200,00000000,0000.61,0000.50,0000.19,-000.22,0000.30,0000.12,0000.22,0000.32,-000.16,17.3,23.8,02.9,02.0,0658.6,31.0
2021-05-31T07:55:00Z,00000200,00000000,0000.64,0000.54,0000.35,-000.30,0000.03,0000.01,-000.39,-000.18,0000.02,17.3,23.8,02.8,01.9,0658.6,30.9
2021-05-31T07:56:00Z,00000200,00000000,0000.32,0000.56,0000.02,0000.17,0000.32,0000.05,0000.29,-000.11,-000.05,17.3,23.8,02.8,01.9,0658.6,31.0
2021-05-31T07:57:00Z,00000200,40000000,,,,,,,-000.03,-000.08,0000.16,17.3,23.8,03.3,02.2,0658.6,31.0
2021-05-31T07:58:00Z,00000200,60000000,,,,,,,-000.31,-000.14,-000.28,17.0,23.9,02.7,01.7,0657.6,31.0
2021-05-31T07:59:00Z,00000200,20000000,,,,,,,0000.16,-000.07,0000.22,17.0,24.0,02.6,01.7,0657.6,31.0
